[[{"header":{"parameterUnit":"m.s-1","parameterCategory":1,"la1":30.2991,"la2":30.254,"lo1":-89.0895,"lo2":-89.0444,"dy":0.0017,"dx":0.0017,"nx":28,"ny":28,"refTime":"2024-07-03T09:00:00:Z","depth":0,"parameterNumber":2,"parameterNumberName":"U-component_of_WINDS"},"data":[0,0,0,0,0,0,0,0,0,0,0,0,0,0,0,0,0,0,0,0,0,0,0,0,0,0,0,0,0,0,0,0,0,0,0,0,0,0,0,0,0,0,0,0,0,0,0,0,0,0,0,0,0,0,0,0,0,0,1.7173,1.7173,0,1.7248,1.7249,1.725,1.7237,1.7235,1.7234,1.7233,1.7311,1.7314,1.7318,0,0,0,0,0,0,0,0,0,0,0,0,0,1.7017,1.702,1.7173,1.7174,1.7175,1.7248,1.7249,1.725,1.7237,1.7235,1.7234,1.7232,1.731,1.7314,1.7318,0,0,0,0,0,0,0,0,0,0,0,0,0,1.7088,1.7021,1.7172,1.7177,1.7178,1.7248,1.7249,1.725,1.7237,1.7235,1.7233,1.7232,1.7309,1.7313,1.7318,1.7389,0,0,1.7334,1.7336,0,0,0,0,0,0,0,0,1.7084,1.7094,1.7175,1.7177,1.7178,1.7231,1.7223,1.7297,1.7238,1.7215,1.7233,1.7231,1.7286,1.7293,1.7311,1.7392,1.7396,1.7334,1.7337,1.7339,1.7341,0,0,0,0,0,0,0,1.7079,1.709,1.7202,1.7176,1.7178,1.7175,1.7183,1.7237,1.7261,1.7217,1.7216,1.7225,1.7286,1.7306,1.7313,1.7397,1.7334,1.7338,1.7341,1.7343,1.7537,1.7539,0,0,0,0,0,0,1.7073,1.7086,1.72,1.7205,1.7125,1.7179,1.7188,1.7216,1.726,1.7265,1.7227,1.7224,1.7299,1.7307,1.7316,1.7399,1.7339,1.7344,1.7347,1.7535,1.7538,1.754,0,0,0,0,0,0,1.707,1.7083,1.7197,1.7145,1.716,1.7184,1.7216,1.7219,1.7238,1.7268,1.7272,1.7243,1.7298,1.7309,1.737,1.7402,1.7346,1.735,1.7533,1.7536,1.7539,1.7567,0,0,0,0,0,0,1.7065,1.7082,1.7109,1.7146,1.7162,1.725,1.7218,1.7221,1.7247,1.7244,1.7284,1.7288,1.7297,1.7363,1.7375,1.7407,1.7354,1.753,1.7534,1.7538,1.7564,1.7571,1.7578,0,0,0,0,0,1.706,1.7115,1.711,1.7124,1.7197,1.7252,1.7261,1.727,1.725,1.7277,1.7295,1.7287,1.7397,1.7369,1.7383,1.7417,1.7528,1.7533,1.7538,1.7561,1.757,1.7578,0,0,0,0,0,0,1.7082,1.712,1.7115,1.7184,1.7215,1.725,1.7284,1.728,1.7317,1.7313,1.7323,1.7332,1.7394,1.7412,1.7381,1.7487,1.7459,1.7467,1.7472,1.7481,1.7488,1.7482,1.7358,0,0,0,0,0,1.7094,1.7136,1.7167,1.7225,1.724,1.726,1.7284,1.7288,1.732,1.7333,1.7356,1.7388,1.743,1.7457,1.7497,1.7567,1.7574,1.7597,1.7604,1.761,1.7616,1.7653,1.7663,1.7556,1.7556,1.7556,0,0,1.7121,1.7147,1.7173,1.723,1.7254,1.7296,1.7271,1.7317,1.7349,1.7341,1.7399,1.7417,1.7453,1.7519,1.7549,1.7536,1.7647,1.7616,1.762,1.7624,1.7659,1.7669,1.7678,1.7559,1.7559,1.7558,0,0,1.7191,1.7216,1.7265,1.729,1.7327,1.7339,1.7351,1.7387,1.7398,1.7457,1.7451,1.7489,1.756,1.7586,1.7608,1.7687,1.768,1.77,1.7735,1.7771,1.7779,1.7787,1.7813,1.7822,1.7706,1.7706,1.7706,0,1.722,1.7283,1.7292,1.7338,1.7363,1.7357,1.7407,1.743,1.7478,1.7495,1.748,1.7569,1.7593,1.7663,1.7682,1.7701,1.7714,1.7694,1.7777,1.7785,1.7792,1.7817,1.7827,1.7708,1.7708,1.7708,1.7707,0,1.7316,1.736,1.7396,1.7441,1.747,1.7518,1.7533,1.7561,1.7563,1.7576,1.7636,1.7665,1.7709,1.7727,1.7729,1.7797,1.7788,1.7775,1.7747,1.7804,1.7828,1.7837,1.7711,1.771,1.7709,1.7709,0,0,1.7402,1.745,1.7463,1.7482,1.7522,1.7556,1.7604,1.7647,1.767,1.7704,1.7743,1.7803,1.7791,1.7816,1.7821,1.7853,1.7911,1.7836,1.7837,1.7847,1.7986,1.7993,1.8005,1.7907,1.7909,1.7911,1.7982,0,1.7474,1.7557,1.7565,1.7639,1.7679,1.7674,1.7715,1.7744,1.7758,1.7794,1.781,1.7851,1.7833,1.7848,1.7879,1.7897,1.7938,1.7893,1.7943,1.7945,1.7932,1.8017,1.8026,1.8092,1.7991,1.7993,1.7994,0,1.7569,1.7604,1.7682,1.7714,1.7731,1.7768,1.7807,1.7842,1.7874,1.7882,1.791,1.791,1.7958,1.793,1.7996,1.7965,1.7986,1.7998,1.8001,1.8004,1.7972,1.8021,1.8113,1.8122,1.8009,1.8008,1.8007,0,1.7621,1.7688,1.7742,1.776,1.7799,1.7825,1.7843,1.7873,1.7898,1.7932,1.7948,1.7988,1.801,1.8041,1.8052,1.8031,1.8117,1.809,1.8124,1.8124,1.8142,1.814,1.8236,1.8158,1.8158,1.8158,1.8158,0,1.77,1.7747,1.7766,1.7799,1.7852,1.7861,1.7913,1.7929,1.7956,1.7992,1.7991,1.8025,1.8039,1.8075,1.8084,1.8137,1.8147,1.8154,1.8156,1.8153,1.8152,1.8166,1.8161,1.8161,1.816,1.816,1.8159,0,1.7766,1.7781,1.7839,1.7872,1.7881,1.7918,1.7946,1.7978,1.7991,1.8037,1.8049,1.807,1.8112,1.8127,1.8179,1.8185,1.8245,1.8244,1.8234,1.8234,1.8266,1.8262,1.8374,1.8388,1.8302,1.8303,1.8304,0,1.7814,1.785,1.7886,1.791,1.7928,1.7967,1.7992,1.8003,1.8028,1.8067,1.8094,1.8136,1.817,1.8238,1.8258,1.8298,1.8296,1.8332,1.8302,1.8298,1.8294,1.8291,1.8294,1.8337,1.8338,1.8339,1.834,0,1.7898,1.7903,1.7939,1.7977,1.8006,1.8037,1.8066,1.8086,1.8101,1.813,1.8173,1.8199,1.8251,1.8292,1.8332,1.8351,1.8347,1.8349,1.8359,1.8356,1.8348,1.835,1.8247,1.8346,1.8346,1.8345,1.8345,1.8344,1.7956,1.7986,1.8016,1.8055,1.8078,1.8106,1.8137,1.8154,1.8189,1.8232,1.8236,1.8282,1.8312,1.8366,1.8386,1.8422,1.8412,1.8426,1.8429,1.8432,1.8434,1.8343,1.8429,1.8429,1.8429,1.8429,1.8429,0,1.8037,1.8056,1.8092,1.8132,1.8163,1.8157,1.8189,1.8215,1.8255,1.8284,1.8317,1.8365,1.8405,1.8428,1.8468,1.8492,1.8491,1.8502,1.8499,1.8503,1.8442,1.8428,1.8502,1.8502,1.8501,1.8501,1.8501,1.8501,1.8083,1.8134,1.8143,1.8205,1.8224,1.8268,1.8286,1.8311,1.8334,1.8388,1.842,1.8435,1.8461,1.8502,1.8538,1.8544,1.8558,1.8569,1.8574,1.8515,1.8508,1.8501,1.8488,1.8573,1.8573,1.8632,1.8633,1.8633]},{"header":{"parameterUnit":"m.s-1","parameterCategory":1,"la1":30.2991,"la2":30.254,"lo1":-89.0895,"lo2":-89.0444,"dy":0.0017,"dx":0.0017,"nx":28,"ny":28,"refTime":"2024-07-03T09:00:00:Z","depth":0,"parameterNumber":3,"parameterNumberName":"V-component_of_WINDS"},"data":[0,0,0,0,0,0,0,0,0,0,0,0,0,0,0,0,0,0,0,0,0,0,0,0,0,0,0,0,0,0,0,0,0,0,0,0,0,0,0,0,0,0,0,0,0,0,0,0,0,0,0,0,0,0,0,0,0,0,1.7532,1.7532,0,1.7593,1.7593,1.7594,1.7567,1.7565,1.7564,1.7562,1.7625,1.7628,1.7631,0,0,0,0,0,0,0,0,0,0,0,0,0,1.7391,1.7393,1.7531,1.7532,1.7533,1.7593,1.7593,1.7594,1.7567,1.7565,1.7563,1.7561,1.7624,1.7628,1.7631,0,0,0,0,0,0,0,0,0,0,0,0,0,1.7452,1.7394,1.7531,1.7526,1.7527,1.7592,1.7594,1.7595,1.7567,1.7565,1.7563,1.7561,1.7623,1.7627,1.7632,1.7706,0,0,1.7646,1.7648,0,0,0,0,0,0,0,0,1.7448,1.7457,1.7526,1.7527,1.7527,1.757,1.7567,1.7632,1.7568,1.7552,1.7562,1.7559,1.7608,1.7614,1.7631,1.7709,1.7712,1.7646,1.7649,1.7651,1.7652,0,0,0,0,0,0,0,1.7444,1.7454,1.7556,1.7527,1.7528,1.7521,1.7527,1.7579,1.7592,1.7553,1.7551,1.7559,1.7608,1.7626,1.7632,1.7713,1.7646,1.765,1.7653,1.7655,1.7855,1.7857,0,0,0,0,0,0,1.744,1.7451,1.7554,1.7558,1.7481,1.7526,1.7533,1.7558,1.7592,1.7594,1.7561,1.7557,1.7619,1.7626,1.7634,1.7723,1.7651,1.7655,1.7658,1.7852,1.7855,1.7858,0,0,0,0,0,0,1.7437,1.7449,1.7551,1.7504,1.7516,1.753,1.756,1.7561,1.7579,1.7597,1.7599,1.7577,1.7618,1.7627,1.7688,1.7725,1.7658,1.7662,1.7849,1.7853,1.7857,1.7902,0,0,0,0,0,0,1.7433,1.7449,1.7477,1.7505,1.7519,1.7605,1.7562,1.7564,1.7587,1.7583,1.7613,1.7616,1.7617,1.7682,1.7693,1.773,1.7665,1.7846,1.7851,1.7855,1.7897,1.7907,1.7915,0,0,0,0,0,1.7428,1.7487,1.7479,1.7491,1.7555,1.7607,1.7615,1.7615,1.759,1.7619,1.763,1.7615,1.7719,1.7688,1.7701,1.774,1.7844,1.785,1.7855,1.7893,1.7905,1.7915,0,0,0,0,0,0,1.7464,1.7491,1.7481,1.7551,1.7577,1.7602,1.7638,1.7628,1.7661,1.7656,1.7655,1.7662,1.7725,1.7738,1.7703,1.7813,1.7777,1.7786,1.7802,1.7813,1.7822,1.7817,1.7669,0,0,0,0,0,1.748,1.752,1.7541,1.7601,1.7614,1.7624,1.7647,1.7645,1.7671,1.7682,1.7698,1.7725,1.7764,1.7789,1.7826,1.7899,1.7905,1.7932,1.7941,1.7948,1.7955,1.7995,1.8007,1.7877,1.7877,1.7876,0,0,1.7513,1.7533,1.7558,1.7608,1.7628,1.767,1.7633,1.7679,1.771,1.7689,1.7747,1.776,1.779,1.7857,1.7888,1.787,1.7992,1.7955,1.7961,1.7964,1.8002,1.8014,1.8025,1.788,1.788,1.7879,0,0,1.7595,1.7614,1.7666,1.7686,1.7716,1.7722,1.7735,1.7762,1.777,1.7828,1.7813,1.785,1.7917,1.7938,1.7958,1.8048,1.8035,1.806,1.8106,1.8145,1.8155,1.8164,1.8196,1.8208,1.8067,1.8067,1.8067,0,1.7633,1.7695,1.7693,1.774,1.7763,1.7746,1.7798,1.7818,1.7859,1.7874,1.7854,1.7938,1.7956,1.8028,1.805,1.8067,1.8081,1.8056,1.8154,1.8163,1.8171,1.8202,1.8214,1.807,1.807,1.8069,1.8069,0,1.774,1.7783,1.7821,1.7861,1.7887,1.7937,1.7943,1.797,1.7965,1.7974,1.8034,1.8055,1.8096,1.8113,1.8109,1.8184,1.8173,1.8153,1.8117,1.8186,1.8215,1.8227,1.8074,1.8073,1.8072,1.8071,0,0,1.7846,1.7884,1.7898,1.7916,1.7948,1.7981,1.803,1.8069,1.8093,1.8121,1.8162,1.8219,1.8201,1.8223,1.8221,1.8255,1.8325,1.8232,1.8232,1.8248,1.841,1.8424,1.8438,1.8317,1.8319,1.8321,1.8407,0,1.793,1.8015,1.8015,1.8093,1.8133,1.8118,1.816,1.8184,1.8193,1.8228,1.8238,1.8278,1.8252,1.8265,1.8298,1.831,1.8358,1.8303,1.8354,1.8356,1.8348,1.8453,1.8468,1.8549,1.8418,1.842,1.8422,0,1.804,1.8072,1.8154,1.818,1.8197,1.8235,1.8271,1.8305,1.8332,1.8336,1.8362,1.8355,1.8404,1.8366,1.8434,1.8398,1.8418,1.8427,1.843,1.8435,1.8393,1.8461,1.8575,1.8587,1.8439,1.8438,1.8437,0,1.8109,1.8173,1.823,1.8246,1.8278,1.8305,1.832,1.8344,1.8368,1.84,1.8415,1.8452,1.8473,1.8502,1.8505,1.8477,1.8573,1.8536,1.8578,1.8578,1.8599,1.8598,1.8719,1.8612,1.8612,1.8612,1.8612,0,1.8203,1.8254,1.8262,1.8297,1.8354,1.8353,1.841,1.8422,1.8444,1.8481,1.847,1.8505,1.8507,1.8544,1.8547,1.8602,1.8612,1.8616,1.8617,1.8618,1.8617,1.8631,1.8626,1.8615,1.8615,1.8614,1.8613,0,1.829,1.8297,1.8359,1.8384,1.8392,1.8432,1.8454,1.8487,1.8495,1.8543,1.8554,1.8566,1.8608,1.8614,1.8664,1.8666,1.8733,1.8727,1.8724,1.8723,1.8764,1.8761,1.8899,1.8917,1.8799,1.88,1.8801,0,1.835,1.8389,1.8418,1.8442,1.8458,1.8497,1.8522,1.8523,1.8548,1.8582,1.8612,1.8653,1.8686,1.8754,1.8767,1.8805,1.88,1.8846,1.8806,1.8805,1.8801,1.8799,1.8802,1.8854,1.8855,1.8856,1.8857,0,1.8455,1.8456,1.8492,1.8529,1.8558,1.8587,1.8614,1.8635,1.8639,1.8669,1.8712,1.8737,1.8788,1.8829,1.8866,1.8881,1.887,1.8869,1.8881,1.8883,1.8879,1.8882,1.8745,1.8866,1.8865,1.8865,1.8864,1.8864,1.853,1.8564,1.859,1.8629,1.865,1.8676,1.8709,1.8721,1.8757,1.8798,1.8796,1.8844,1.887,1.8919,1.8936,1.8973,1.8958,1.8975,1.8979,1.8984,1.8988,1.8873,1.898,1.8979,1.8979,1.8979,1.8979,0,1.8634,1.865,1.8687,1.8725,1.8757,1.8744,1.8773,1.88,1.8842,1.8867,1.89,1.8949,1.8989,1.9005,1.9044,1.9071,1.9067,1.9081,1.9079,1.9083,1.8999,1.8985,1.9083,1.9083,1.9083,1.9083,1.9083,1.9083,1.8692,1.8749,1.8753,1.882,1.8835,1.8882,1.89,1.8924,1.8944,1.8999,1.9032,1.9043,1.9065,1.9105,1.9141,1.9144,1.9159,1.9176,1.9178,1.9099,1.9088,1.9078,1.9065,1.9179,1.9179,1.9258,1.9259,1.9259]}]]